New Iberia, LA

10:54 PM CDT on July 23, 2017 (GMT -0500)
Acadiana Regional

Weather History for KARA - November, 2011

Change the Weather History Date:

Wednesday, November 2, 2011

  Actual Average Record
Temperature  
Mean Temperature 69 °F 65 °F  
Max Temperature 83 °F 77 °F 88 °F (1978)
Min Temperature 55 °F 54 °F 33 °F (1993)
Degree Days  
Heating Degree Days 0 3  
Month to date heating degree days 0 6  
Since 1 July heating degree days 56 40  
Cooling Degree Days 4 3  
Month to date cooling degree days 4 6  
Year to date cooling degree days 3132 2751  
Growing Degree Days 20 (Base 50)    
Moisture  
Dew Point 57 °F    
Average Humidity 68    
Maximum Humidity 90    
Minimum Humidity 45    
Precipitation  
Precipitation 0.00 in 0.09 in 1.94 in (1995)
Month to date precipitation 0.00 0.18  
Year to date precipitation 29.27 50.62  
Sea Level Pressure  
Sea Level Pressure 30.13 in    
Wind  
Wind Speed 9 mph (SE)    
Max Wind Speed 20 mph    
Max Gust Speed 25 mph    
Visibility 10 miles    
Events      
T = Trace of Precipitation, MM = Missing Value Source: NWS Daily Summary

Daily Weather History Graph

Daily Weather History Graph

Search for Another Location

Airport or City:

Trip Planner

Search our weather history database for the weather conditions in past years. The results will help you decide how hot, cold, wet, or windy it might be!

Date:

Astronomy

Nov. 02, 2011 Rise Set
Actual Time 7:22 AM CDT 6:19 PM CDT
Civil Twilight 6:57 AM CDT 6:44 PM CDT
Nautical Twilight 6:28 AM CDT 7:12 PM CDT
Astronomical Twilight 6:00 AM CDT 7:40 PM CDT
Moon 1:42 PM CDT (11/2) 12:06 AM CDT (11/2)
Length of Visible Light 11h 47m
Length of Day
10h 57m
Waxing Crescent, 50% of the Moon is Illuminated
Nov 2
Waxing Crescent
Nov 10
Full
Nov 18
Last Quarter
Nov 25
New
Dec 2
First Quarter

Hourly Weather History & Observations

Time (CDT) Temp. Heat Index Dew Point Humidity Pressure Visibility Wind Dir Wind Speed Gust Speed Precip Events Conditions
12:53 AM 60.1 °F - 54.0 °F 80% 30.15 in 10.0 mi ESE 8.1 mph - N/A   Clear
1:53 AM 60.1 °F - 54.0 °F 80% 30.14 in 10.0 mi ESE 8.1 mph - N/A   Clear
2:53 AM 59.0 °F - 54.0 °F 83% 30.13 in 10.0 mi ESE 6.9 mph - N/A   Clear
3:53 AM 59.0 °F - 53.1 °F 81% 30.14 in 10.0 mi East 3.5 mph - N/A   Clear
4:53 AM 57.0 °F - 53.1 °F 87% 30.14 in 10.0 mi ENE 5.8 mph - N/A   Clear
5:53 AM 57.0 °F - 53.1 °F 87% 30.14 in 10.0 mi East 6.9 mph - N/A   Clear
6:53 AM 59.0 °F - 54.0 °F 83% 30.16 in 9.0 mi East 4.6 mph - N/A   Overcast
7:53 AM 59.0 °F - 54.0 °F 83% 30.17 in 9.0 mi East 5.8 mph - N/A   Partly Cloudy
8:53 AM 64.0 °F - 57.0 °F 78% 30.18 in 10.0 mi East 9.2 mph - N/A   Clear
9:53 AM 70.0 °F - 57.9 °F 65% 30.18 in 10.0 mi ESE 12.7 mph - N/A   Clear
10:53 AM 75.0 °F - 59.0 °F 57% 30.17 in 10.0 mi SE 13.8 mph - N/A   Clear
11:53 AM 79.0 °F - 59.0 °F 50% 30.15 in 9.0 mi ESE 15.0 mph 21.9 mph N/A   Clear
12:53 PM 81.0 °F 81.6 °F 60.1 °F 49% 30.13 in 10.0 mi SSE 16.1 mph 25.3 mph N/A   Clear
1:53 PM 82.0 °F 82.1 °F 59.0 °F 45% 30.11 in 10.0 mi SSE 18.4 mph - N/A   Scattered Clouds
3:53 PM 81.0 °F 81.1 °F 57.9 °F 45% 30.08 in 10.0 mi SSE 13.8 mph - N/A   Clear
4:53 PM 78.1 °F - 59.0 °F 52% 30.09 in 10.0 mi South 9.2 mph - N/A   Partly Cloudy
5:53 PM 75.0 °F - 57.9 °F 55% 30.10 in 10.0 mi South 9.2 mph - N/A   Mostly Cloudy
6:53 PM 71.1 °F - 57.9 °F 63% 30.10 in 10.0 mi South 8.1 mph - N/A   Partly Cloudy
7:53 PM 66.0 °F - 57.9 °F 75% 30.11 in 10.0 mi South 3.5 mph - N/A   Clear
9:53 PM 62.1 °F - 57.0 °F 84% 30.10 in 10.0 mi SSE 6.9 mph - N/A   Clear
10:53 PM 63.0 °F - 59.0 °F 87% 30.13 in 10.0 mi ESE 3.5 mph - N/A   Mostly Cloudy
11:53 PM 63.0 °F - 57.9 °F 84% 30.12 in 10.0 mi SE 3.5 mph - N/A   Mostly Cloudy